RYR7099 LFBE-EGHH

Flight info

Callsign RYR7099
Flight time 1h 12m
Altitude 34000
Route VELIN DCT UVELI DCT CNA DCT MANAK UY110 ORIST Y110 THRED
Aircraft B738/M-SDE3FGILRWY/SB1

Departure

Time 2026-05-05 08:06
Airport Bergerac Dordogne-Périgord airport (LFBE)

Arrival

Time 2026-05-05 09:19
Airport Bournemouth Airport (EGHH)
Time Latitude Longitude Altitude Speed Heading
2026-05-05 07:40 44.82264 0.51628 178 ft 0 kts 308°
2026-05-05 08:01 44.82266 0.51624 179 ft 2 kts 308°
2026-05-05 08:01 44.82280 0.51600 179 ft 5 kts 308°
2026-05-05 08:01 44.82303 0.51554 179 ft 6 kts 298°
2026-05-05 08:01 44.82311 0.51498 179 ft 6 kts 273°
2026-05-05 08:02 44.82313 0.51442 179 ft 6 kts 273°
2026-05-05 08:02 44.82315 0.51386 179 ft 6 kts 275°
2026-05-05 08:02 44.82320 0.51312 180 ft 11 kts 275°
2026-05-05 08:02 44.82327 0.51194 180 ft 12 kts 274°
2026-05-05 08:03 44.82333 0.51077 180 ft 12 kts 274°
2026-05-05 08:03 44.82339 0.50962 180 ft 12 kts 274°
2026-05-05 08:03 44.82346 0.50837 180 ft 13 kts 274°
2026-05-05 08:03 44.82352 0.50726 179 ft 7 kts 274°
2026-05-05 08:04 44.82366 0.50663 178 ft 7 kts 319°
2026-05-05 08:04 44.82413 0.50659 178 ft 7 kts
2026-05-05 08:04 44.82461 0.50662 178 ft 7 kts
2026-05-05 08:04 44.82507 0.50672 177 ft 7 kts 30°
2026-05-05 08:05 44.82514 0.50733 179 ft 5 kts 99°
2026-05-05 08:05 44.82512 0.50759 179 ft 0 kts 95°
2026-05-05 08:05 44.82497 0.51030 180 ft 68 kts 94°
2026-05-05 08:05 44.82443 0.52070 177 ft 142 kts 94°
2026-05-05 08:06 44.82350 0.53711 416 ft 184 kts 96°
2026-05-05 08:06 44.82286 0.55530 1389 ft 189 kts 94°
2026-05-05 08:06 44.82188 0.57417 2240 ft 195 kts 95°
2026-05-05 08:06 44.82067 0.59418 2797 ft 218 kts 94°
2026-05-05 08:07 44.81946 0.61670 3082 ft 241 kts 89°
2026-05-05 08:07 44.82415 0.63943 3630 ft 248 kts 54°
2026-05-05 08:07 44.83718 0.65487 4277 ft 251 kts 22°
2026-05-05 08:07 44.85467 0.65870 4809 ft 263 kts 349°
2026-05-05 08:08 44.87177 0.65045 5802 ft 262 kts 329°
2026-05-05 08:08 44.88721 0.63610 6686 ft 268 kts 323°
2026-05-05 08:08 44.90253 0.62069 7617 ft 273 kts 323°
2026-05-05 08:08 44.91819 0.60530 8539 ft 276 kts 323°
2026-05-05 08:09 44.93349 0.58867 9373 ft 280 kts 309°
2026-05-05 08:09 44.94308 0.56550 10187 ft 280 kts 286°
2026-05-05 08:09 44.94716 0.53811 10556 ft 302 kts 277°
2026-05-05 08:09 44.94984 0.50760 10901 ft 321 kts 275°
2026-05-05 08:10 44.95232 0.47587 11565 ft 329 kts 275°
2026-05-05 08:10 44.95489 0.44361 12385 ft 333 kts 275°
2026-05-05 08:10 44.95762 0.41090 13164 ft 338 kts 275°
2026-05-05 08:10 44.96048 0.37768 13901 ft 344 kts 275°
2026-05-05 08:11 44.96343 0.34399 14608 ft 348 kts 275°
2026-05-05 08:11 44.96645 0.30994 15353 ft 351 kts 275°
2026-05-05 08:11 44.96949 0.27561 16092 ft 354 kts 275°
2026-05-05 08:11 44.97255 0.24099 16801 ft 358 kts 275°
2026-05-05 08:12 44.97567 0.20590 17512 ft 362 kts 276°
2026-05-05 08:12 44.98317 0.17264 18153 ft 372 kts 297°
2026-05-05 08:12 44.99941 0.14392 18771 ft 380 kts 317°
2026-05-05 08:12 45.02186 0.12387 19395 ft 385 kts 331°
2026-05-05 08:13 45.04593 0.10698 19984 ft 389 kts 333°
2026-05-05 08:13 45.07061 0.09049 20555 ft 394 kts 334°
2026-05-05 08:13 45.09553 0.07407 21134 ft 398 kts 334°
2026-05-05 08:13 45.12072 0.05741 21717 ft 401 kts 334°
2026-05-05 08:14 45.14610 0.04048 22290 ft 405 kts 333°
2026-05-05 08:14 45.17126 0.02355 22837 ft 409 kts 333°
2026-05-05 08:14 45.19706 0.00609 23383 ft 413 kts 333°
2026-05-05 08:14 45.22307 -0.01160 23850 ft 416 kts 333°
2026-05-05 08:15 45.24922 -0.02942 24324 ft 419 kts 333°
2026-05-05 08:15 45.27560 -0.04743 24794 ft 421 kts 333°
2026-05-05 08:15 45.30213 -0.06556 25239 ft 425 kts 333°
2026-05-05 08:15 45.32880 -0.08381 25668 ft 428 kts 333°
2026-05-05 08:16 45.35573 -0.10225 26098 ft 431 kts 333°
2026-05-05 08:16 45.38280 -0.12081 26513 ft 434 kts 333°
2026-05-05 08:16 45.41010 -0.13954 26921 ft 437 kts 333°
2026-05-05 08:16 45.43723 -0.15818 27311 ft 440 kts 334°
2026-05-05 08:17 45.46522 -0.17743 27703 ft 443 kts 334°
2026-05-05 08:17 45.49310 -0.19662 28086 ft 446 kts 334°
2026-05-05 08:17 45.52078 -0.21570 28459 ft 449 kts 334°
2026-05-05 08:17 45.54902 -0.23519 28827 ft 452 kts 334°
2026-05-05 08:18 45.57738 -0.25478 29210 ft 455 kts 334°
2026-05-05 08:18 45.60547 -0.27420 29682 ft 454 kts 334°
2026-05-05 08:18 45.63382 -0.29383 30199 ft 453 kts 334°
2026-05-05 08:18 45.66175 -0.31455 30611 ft 452 kts 328°
2026-05-05 08:19 45.68743 -0.34043 30986 ft 451 kts 321°
2026-05-05 08:19 45.71201 -0.36817 31389 ft 450 kts 320°
2026-05-05 08:19 45.73638 -0.39634 31790 ft 450 kts 320°
2026-05-05 08:19 45.76068 -0.42449 32199 ft 449 kts 320°
2026-05-05 08:20 45.78500 -0.45251 32582 ft 448 kts 320°
2026-05-05 08:20 45.80937 -0.48040 32957 ft 448 kts 320°
2026-05-05 08:20 45.83375 -0.50815 33351 ft 447 kts 320°
2026-05-05 08:20 45.85804 -0.53574 33737 ft 446 kts 320°
2026-05-05 08:21 45.88241 -0.56341 33942 ft 449 kts 320°
2026-05-05 08:21 45.90680 -0.59113 33917 ft 452 kts 320°
2026-05-05 08:21 45.95594 -0.64705 33903 ft 447 kts 320°
2026-05-05 08:22 46.00432 -0.70226 33914 ft 444 kts 320°
2026-05-05 08:22 46.05273 -0.75766 33919 ft 446 kts 320°
2026-05-05 08:23 46.10029 -0.81221 33913 ft 447 kts 320°
2026-05-05 08:23 46.13941 -0.85717 33911 ft 448 kts 320°
2026-05-05 08:24 46.18817 -0.91332 33910 ft 449 kts 320°
2026-05-05 08:24 46.23698 -0.96963 33910 ft 449 kts 320°
2026-05-05 08:25 46.28577 -1.02597 33909 ft 449 kts 320°
2026-05-05 08:25 46.33445 -1.08232 33912 ft 448 kts 320°
2026-05-05 08:26 46.38302 -1.13868 33909 ft 447 kts 320°
2026-05-05 08:26 46.43118 -1.19471 33911 ft 446 kts 320°
2026-05-05 08:27 46.47981 -1.25142 33913 ft 445 kts 320°
2026-05-05 08:27 46.52804 -1.30779 33916 ft 445 kts 320°
2026-05-05 08:28 46.57560 -1.36350 33915 ft 445 kts 320°
2026-05-05 08:28 46.62744 -1.41307 33916 ft 444 kts 334°
2026-05-05 08:29 46.68301 -1.45130 33909 ft 445 kts 335°
2026-05-05 08:30 46.76684 -1.50958 33914 ft 445 kts 334°
2026-05-05 08:30 46.82260 -1.54922 33914 ft 446 kts 334°
2026-05-05 08:31 46.88024 -1.58223 33911 ft 446 kts 348°
2026-05-05 08:31 46.94111 -1.59210 33913 ft 444 kts 358°
2026-05-05 08:32 47.00287 -1.59713 33911 ft 445 kts 358°
2026-05-05 08:32 47.06471 -1.60299 33911 ft 446 kts 357°
2026-05-05 08:33 47.12669 -1.60943 33915 ft 447 kts 358°
2026-05-05 08:33 47.18774 -1.61615 33911 ft 448 kts 356°
2026-05-05 08:34 47.23936 -1.62324 33910 ft 448 kts 356°
2026-05-05 08:34 47.30147 -1.63188 33910 ft 448 kts 356°
2026-05-05 08:35 47.36359 -1.64028 33906 ft 449 kts 356°
2026-05-05 08:35 47.42580 -1.64909 33907 ft 449 kts 356°
2026-05-05 08:36 47.48799 -1.65804 33902 ft 449 kts 356°
2026-05-05 08:36 47.55022 -1.66697 33901 ft 450 kts 356°
2026-05-05 08:37 47.61256 -1.67592 33893 ft 450 kts 356°
2026-05-05 08:37 47.67432 -1.68479 33897 ft 451 kts 356°
2026-05-05 08:38 47.73676 -1.69378 33898 ft 451 kts 356°
2026-05-05 08:38 47.79933 -1.70281 33900 ft 452 kts 356°
2026-05-05 08:39 47.86203 -1.71189 33909 ft 453 kts 356°
2026-05-05 08:39 47.92476 -1.72099 33908 ft 454 kts 356°
2026-05-05 08:40 47.98761 -1.73013 33918 ft 455 kts 356°
2026-05-05 08:40 48.05062 -1.73931 33914 ft 455 kts 356°
2026-05-05 08:41 48.11385 -1.74429 33900 ft 455 kts
2026-05-05 08:41 48.17711 -1.74435 33906 ft 454 kts
2026-05-05 08:42 48.24020 -1.74426 33921 ft 454 kts
2026-05-05 08:42 48.30326 -1.74472 33906 ft 453 kts
2026-05-05 08:43 48.36643 -1.74546 33922 ft 455 kts
2026-05-05 08:43 48.42880 -1.74625 33912 ft 442 kts
2026-05-05 08:44 48.48992 -1.74699 33890 ft 438 kts
2026-05-05 08:44 48.51998 -1.74735 33549 ft 436 kts
2026-05-05 08:44 48.55004 -1.74771 33249 ft 429 kts
2026-05-05 08:44 48.57972 -1.74807 32890 ft 425 kts
2026-05-05 08:45 48.60917 -1.74842 32510 ft 421 kts
2026-05-05 08:45 48.63839 -1.74877 32142 ft 418 kts
2026-05-05 08:45 48.66736 -1.74911 31787 ft 415 kts
2026-05-05 08:45 48.69616 -1.74946 31417 ft 412 kts
2026-05-05 08:46 48.72476 -1.74980 31066 ft 409 kts
2026-05-05 08:46 48.75311 -1.75014 30719 ft 407 kts
2026-05-05 08:46 48.78135 -1.75047 30370 ft 404 kts
2026-05-05 08:46 48.80942 -1.75081 30014 ft 402 kts
2026-05-05 08:47 48.83730 -1.75114 29616 ft 399 kts
2026-05-05 08:47 48.86485 -1.75147 29262 ft 394 kts
2026-05-05 08:47 48.89217 -1.75180 28898 ft 390 kts
2026-05-05 08:47 48.91691 -1.75203 28588 ft 386 kts
2026-05-05 08:48 48.94363 -1.75147 28304 ft 381 kts
2026-05-05 08:48 48.97006 -1.75043 28039 ft 382 kts
2026-05-05 08:48 48.99674 -1.74922 27777 ft 383 kts
2026-05-05 08:48 49.02331 -1.74804 27454 ft 380 kts
2026-05-05 08:49 49.04958 -1.74694 27088 ft 377 kts
2026-05-05 08:49 49.07572 -1.74588 26740 ft 374 kts
2026-05-05 08:49 49.10170 -1.74487 26383 ft 372 kts
2026-05-05 08:49 49.12749 -1.74388 26035 ft 369 kts
2026-05-05 08:50 49.15305 -1.74291 25701 ft 367 kts
2026-05-05 08:50 49.17849 -1.74194 25360 ft 364 kts
2026-05-05 08:50 49.20375 -1.74099 25028 ft 362 kts
2026-05-05 08:50 49.22890 -1.74004 24692 ft 361 kts
2026-05-05 08:51 49.25396 -1.73909 24348 ft 359 kts
2026-05-05 08:51 49.27891 -1.73814 23997 ft 357 kts
2026-05-05 08:51 49.30369 -1.73720 23678 ft 355 kts
2026-05-05 08:51 49.32832 -1.73627 23302 ft 354 kts
2026-05-05 08:52 49.35287 -1.73533 22946 ft 352 kts
2026-05-05 08:52 49.37733 -1.73441 22585 ft 351 kts
2026-05-05 08:52 49.40135 -1.73348 22235 ft 350 kts
2026-05-05 08:52 49.42557 -1.73256 21915 ft 347 kts
2026-05-05 08:53 49.44964 -1.73164 21581 ft 345 kts
2026-05-05 08:53 49.47354 -1.73073 21236 ft 343 kts
2026-05-05 08:53 49.49735 -1.72983 20906 ft 341 kts
2026-05-05 08:53 49.52097 -1.72892 20580 ft 339 kts
2026-05-05 08:54 49.54446 -1.72802 20256 ft 336 kts
2026-05-05 08:54 49.56684 -1.72716 19949 ft 334 kts
2026-05-05 08:54 49.58957 -1.72635 19631 ft 333 kts
2026-05-05 08:54 49.61253 -1.72951 19426 ft 328 kts 351°
2026-05-05 08:55 49.63489 -1.73596 19143 ft 326 kts 351°
2026-05-05 08:55 49.65704 -1.74274 18849 ft 324 kts 350°
2026-05-05 08:55 49.67875 -1.74942 18546 ft 323 kts 350°
2026-05-05 08:55 49.70078 -1.75612 18231 ft 322 kts 350°
2026-05-05 08:56 49.72273 -1.76272 17879 ft 321 kts 351°
2026-05-05 08:56 49.74455 -1.76923 17534 ft 319 kts 350°
2026-05-05 08:56 49.76628 -1.77568 17210 ft 317 kts 350°
2026-05-05 08:56 49.78787 -1.78208 16887 ft 315 kts 350°
2026-05-05 08:57 49.80931 -1.78842 16575 ft 312 kts 350°
2026-05-05 08:57 49.83056 -1.79471 16267 ft 310 kts 350°
2026-05-05 08:57 49.85170 -1.80096 15960 ft 308 kts 350°
2026-05-05 08:57 49.87272 -1.80719 15652 ft 306 kts 350°
2026-05-05 08:58 49.89361 -1.81337 15349 ft 304 kts 350°
2026-05-05 08:58 49.91437 -1.81953 15051 ft 303 kts 350°
2026-05-05 08:58 49.93479 -1.82560 14747 ft 301 kts 350°
2026-05-05 08:58 49.95532 -1.83170 14450 ft 299 kts 350°
2026-05-05 08:59 49.97573 -1.83776 14149 ft 298 kts 349°
2026-05-05 08:59 49.99603 -1.84365 13850 ft 296 kts 352°
2026-05-05 08:59 50.01575 -1.84428 13594 ft 292 kts
2026-05-05 08:59 50.03590 -1.84116 13287 ft 290 kts
2026-05-05 09:00 50.05592 -1.83788 12986 ft 288 kts
2026-05-05 09:00 50.07575 -1.83484 12686 ft 286 kts
2026-05-05 09:00 50.09378 -1.83226 12418 ft 284 kts
2026-05-05 09:00 50.11366 -1.82949 12104 ft 282 kts
2026-05-05 09:01 50.13316 -1.82681 11818 ft 280 kts
2026-05-05 09:01 50.15230 -1.82187 11551 ft 277 kts 14°
2026-05-05 09:01 50.17081 -1.81386 11273 ft 276 kts 17°
2026-05-05 09:01 50.18888 -1.80531 10975 ft 274 kts 17°
2026-05-05 09:02 50.20705 -1.79667 10685 ft 273 kts 17°
2026-05-05 09:02 50.22519 -1.78817 10403 ft 271 kts 17°
2026-05-05 09:02 50.24324 -1.77982 10120 ft 270 kts 16°
2026-05-05 09:02 50.26100 -1.77169 10007 ft 262 kts 16°
2026-05-05 09:03 50.27844 -1.76375 9726 ft 261 kts 16°
2026-05-05 09:03 50.29581 -1.75588 9440 ft 259 kts 16°
2026-05-05 09:03 50.31304 -1.74809 9180 ft 257 kts 16°
2026-05-05 09:03 50.33017 -1.74035 8912 ft 255 kts 16°
2026-05-05 09:04 50.34717 -1.73268 8633 ft 254 kts 15°
2026-05-05 09:04 50.36415 -1.72502 8357 ft 252 kts 15°
2026-05-05 09:04 50.37884 -1.71838 8128 ft 251 kts 15°
2026-05-05 09:04 50.39563 -1.71080 7849 ft 250 kts 15°
2026-05-05 09:05 50.41235 -1.70324 7569 ft 249 kts 15°
2026-05-05 09:05 50.42884 -1.69579 7425 ft 243 kts 15°
2026-05-05 09:05 50.44489 -1.68853 7301 ft 236 kts 15°
2026-05-05 09:05 50.46046 -1.68148 7197 ft 229 kts 15°
2026-05-05 09:06 50.47557 -1.67463 7089 ft 226 kts 15°
2026-05-05 09:06 50.49066 -1.66780 7005 ft 225 kts 15°
2026-05-05 09:06 50.50554 -1.66021 6974 ft 225 kts 21°
2026-05-05 09:06 50.51987 -1.65045 6983 ft 224 kts 23°
2026-05-05 09:07 50.53403 -1.64036 6975 ft 223 kts 23°
2026-05-05 09:07 50.54810 -1.63034 6968 ft 221 kts 23°
2026-05-05 09:07 50.56205 -1.62047 6972 ft 219 kts 22°
2026-05-05 09:07 50.57591 -1.61073 6971 ft 218 kts 23°
2026-05-05 09:08 50.58968 -1.60110 6979 ft 216 kts 22°
2026-05-05 09:08 50.60342 -1.59151 6977 ft 217 kts 22°
2026-05-05 09:08 50.61702 -1.58203 6989 ft 221 kts 22°
2026-05-05 09:08 50.63137 -1.57203 6989 ft 224 kts 22°
2026-05-05 09:09 50.64547 -1.56249 6982 ft 224 kts 16°
2026-05-05 09:09 50.66074 -1.56148 6986 ft 222 kts 345°
2026-05-05 09:09 50.67442 -1.57318 6817 ft 231 kts 317°
2026-05-05 09:09 50.68440 -1.59344 6604 ft 235 kts 304°
2026-05-05 09:10 50.69278 -1.61541 6370 ft 233 kts 302°
2026-05-05 09:10 50.70087 -1.63745 6122 ft 231 kts 302°
2026-05-05 09:10 50.70882 -1.65903 5906 ft 228 kts 303°
2026-05-05 09:10 50.71680 -1.68055 5681 ft 226 kts 303°
2026-05-05 09:11 50.72473 -1.70178 5469 ft 223 kts 303°
2026-05-05 09:11 50.73256 -1.72268 5269 ft 220 kts 304°
2026-05-05 09:11 50.74027 -1.74325 5072 ft 217 kts 304°
2026-05-05 09:11 50.74801 -1.76372 4870 ft 217 kts 305°
2026-05-05 09:12 50.75577 -1.78424 4670 ft 218 kts 304°
2026-05-05 09:12 50.76350 -1.80480 4444 ft 218 kts 304°
2026-05-05 09:12 50.77118 -1.82521 4230 ft 216 kts 304°
2026-05-05 09:12 50.77770 -1.84657 4017 ft 221 kts 283°
2026-05-05 09:13 50.77792 -1.87105 3848 ft 223 kts 272°
2026-05-05 09:13 50.77759 -1.89554 3615 ft 222 kts 274°
2026-05-05 09:13 50.77743 -1.91986 3412 ft 220 kts 274°
2026-05-05 09:13 50.77728 -1.94406 3239 ft 220 kts 273°
2026-05-05 09:14 50.77716 -1.96843 2979 ft 222 kts 274°
2026-05-05 09:14 50.77697 -1.99270 2797 ft 221 kts 273°
2026-05-05 09:14 50.77684 -2.01702 2597 ft 222 kts 273°
2026-05-05 09:14 50.77412 -2.04091 2369 ft 224 kts 241°
2026-05-05 09:15 50.76266 -2.05616 2190 ft 216 kts 196°
2026-05-05 09:15 50.74862 -2.05509 2148 ft 196 kts 147°
2026-05-05 09:15 50.73980 -2.04004 1996 ft 186 kts 100°
2026-05-05 09:15 50.74123 -2.02189 2022 ft 165 kts 53°
2026-05-05 09:16 50.74880 -2.00880 1906 ft 163 kts 50°
2026-05-05 09:16 50.75361 -1.99258 1734 ft 164 kts 71°
2026-05-05 09:16 50.75731 -1.97608 1579 ft 156 kts 65°
2026-05-05 09:16 50.76061 -1.96022 1491 ft 147 kts 71°
2026-05-05 09:17 50.76322 -1.94458 1298 ft 145 kts 72°
2026-05-05 09:17 50.76571 -1.92932 1114 ft 145 kts 71°
2026-05-05 09:17 50.76829 -1.91376 892 ft 147 kts 72°
2026-05-05 09:17 50.77085 -1.89831 677 ft 144 kts 71°
2026-05-05 09:18 50.77332 -1.88330 477 ft 138 kts 72°
2026-05-05 09:18 50.77577 -1.86848 318 ft 143 kts 71°
2026-05-05 09:18 50.77830 -1.85317 111 ft 144 kts 72°
2026-05-05 09:18 50.78077 -1.83855 43 ft 125 kts 76°
2026-05-05 09:19 50.78217 -1.82967 41 ft 34 kts 72°
2026-05-05 09:19 50.78230 -1.82781 43 ft 9 kts 107°
2026-05-05 09:19 50.78253 -1.82713 43 ft 9 kts 353°
2026-05-05 09:19 50.78252 -1.82794 38 ft 9 kts 240°
2026-05-05 09:20 50.78233 -1.82886 40 ft 9 kts 255°
2026-05-05 09:20 50.78217 -1.82977 40 ft 8 kts 255°
2026-05-05 09:20 50.78179 -1.83035 42 ft 8 kts 188°
2026-05-05 09:20 50.78130 -1.83069 44 ft 8 kts 228°
2026-05-05 09:21 50.78102 -1.83142 45 ft 8 kts 239°
2026-05-05 09:21 50.78072 -1.83212 45 ft 8 kts 236°
2026-05-05 09:21 50.78041 -1.83295 45 ft 10 kts 241°
2026-05-05 09:21 50.78005 -1.83408 44 ft 12 kts 244°
2026-05-05 09:22 50.77947 -1.83492 45 ft 12 kts 191°
2026-05-05 09:22 50.77872 -1.83479 45 ft 8 kts 171°
2026-05-05 09:22 50.77857 -1.83476 45 ft 0 kts 171°
2026-05-05 09:22 50.77854 -1.83475 45 ft 1 kts 168°
2026-05-05 09:23 50.77845 -1.83461 44 ft 2 kts 121°
2026-05-05 09:23 50.77842 -1.83428 45 ft 5 kts 92°
2026-05-05 09:23 50.77843 -1.83382 45 ft 1 kts 87°
2026-05-05 09:23 50.77844 -1.83381 45 ft 0 kts 87°